Location: St. Louis
(38.6270°N, 90.1994°W)
Time: 20:11:34
(UTC-06:00)

Vanguard 3 - Pass Details

Date: 06 December 2021
Orbit: 508 x 3260 km, 33.3° (Epoch: 19 January)

Event Time Altitude Azimuth Distance (km) Brightness Sun altitude
Exits shadow 04:20:42 36° 243° (WSW) 4,384 10.3 -31.3°
Maximum altitude 04:31:26 72° 172° (S) 3,229 10.0 -29.2°
Drops below altitude 10° 04:47:28 10° 92° (E) 5,029 12.2 -26.1°
Sets 04:50:44 0° 90° (E) 5,739 12.8 -25.4°
